Lapse_Rate
6.7 6.7 6.8 6.8 6.8 6.8 6.9 7.0 7.0 6.8 6.6 6.5 6.3 6.2 6.0 6.0 6.1 6.0 5.9 5.7 5.6 5.5
7.0 7.0 6.9 6.9 6.8 6.8 6.9 6.8 6.7 6.5 6.4 6.3 6.2 6.2 6.3 6.3 6.2 6.1 6.0 5.9 5.9 5.8
7.0 6.9 6.8 6.8 6.8 6.8 6.8 6.7 6.6 6.5 6.3 6.2 6.2 6.1 6.1 6.1 6.1 6.2 6.1 6.1 6.1 6.0
7.1 7.1 7.0 6.7 6.6 6.7 6.6 6.5 6.5 6.4 6.3 6.3 6.3 6.2 6.1 5.9 6.0 6.0 6.0 6.0 5.9 5.9
7.2 7.4 7.3 7.2 7.2 7.2 7.2 7.0 6.7 6.5 6.4 6.4 6.3 6.2 6.0 6.1 6.1 6.1 6.1 6.0 6.0 6.0
7.5 7.3 7.1 7.1 7.1 7.1 7.2 7.0 6.7 6.4 6.3 6.2 6.2 6.2 6.2 6.2 6.1 6.0 6.0 6.0 6.1 6.1
7.6 7.4 7.3 7.1 6.8 6.4 6.4 6.7 6.6 6.4 6.2 6.2 6.0 5.8 6.0 6.2 6.1 6.0 6.0 6.0 6.0 6.0
7.9 7.5 7.3 7.1 6.9 7.0 6.4 6.4 6.3 6.1 6.2 6.0 6.1 5.8 5.7 5.9 6.1 6.1 5.9 6.0 6.1 6.2
8.1 7.9 7.6 7.3 7.0 6.4 6.6 6.6 6.7 6.8 6.2 6.2 6.1 5.9 5.6 5.7 6.0 6.0 5.9 6.0 6.0 6.0
7.7 7.6 7.3 7.4 6.7 6.6 6.4 6.0 5.9 6.4 6.6 6.4 6.1 6.0 5.8 5.8 5.7 5.6 5.7 5.8 5.8 5.8
7.0 6.9 6.3 5.7 6.4 6.2 6.3 6.8 5.9 5.9 6.0 6.2 6.3 6.0 5.8 5.8 5.7 5.5 5.6 5.7 5.7 5.6
6.9 7.0 6.5 6.7 6.9 6.8 6.6 6.4 5.8 5.7 5.6 5.8 6.1 5.9 5.8 5.8 5.8 5.7 5.5 5.6 5.8 5.6
7.0 7.0 6.7 6.5 6.4 6.7 6.6 6.3 6.0 5.8 5.0 5.5 5.3 6.0 5.8 6.1 5.7 5.6 5.7 5.6 5.6 5.5
6.5 6.3 6.5 6.5 6.2 6.6 6.4 6.2 6.1 5.6 5.5 5.7 5.2 5.0 5.8 5.7 5.6 5.7 5.7 5.7 5.4 5.4
Wind_Speed
12 6 6 7 6 6 6 6 7 5 4 3 1 1 2 2 2 3 2 2 2 2
9 9 8 8 7 5 5 5 7 5 4 3 2 2 3 2 2 1 1 2 2 1
12 10 9 8 8 8 7 7 8 7 5 4 3 2 2 3 3 3 3 2 2 2
11 11 11 10 9 8 8 8 8 8 7 7 6 5 3 2 3 3 3 2 1 1
12 12 12 11 11 11 11 11 10 9 7 7 5 5 6 5 3 3 4 3 2 2
13 13 13 11 9 10 10 10 10 10 9 7 6 6 5 4 4 4 4 3 2 2
13 13 12 9 9 9 9 10 10 10 9 9 7 6 5 5 4 3 3 2 3 2
12 11 9 9 9 9 8 9 10 9 9 9 8 7 7 6 5 4 3 3 3 2
8 9 8 6 5 6 8 9 9 11 11 10 8 9 9 7 6 6 5 5 5 4
11 11 7 6 7 7 9 9 11 11 10 11 10 9 11 11 7 6 5 5 5 6
5 7 12 13 13 13 13 11 10 11 11 10 9 9 11 12 7 5 5 6 6 7
1 7 10 10 12 10 13 13 7 7 11 11 8 11 12 11 8 7 6 6 6 6
7 11 13 12 14 14 15 14 8 7 9 9 6 11 12 12 6 6 5 5 5 7
7 9 11 12 12 14 14 10 9 9 5 4 4 5 11 11 7 5 4 3 4 3
Wind_Direction
217 224 235 224 208 205 200 194 176 177 168 150 168 155 125 135 111 90 89 69 54 76
215 223 229 217 202 201 200 181 174 168 163 160 160 161 145 141 136 122 107 110 101 107
214 220 225 215 200 198 188 178 170 172 168 164 160 183 221 187 157 171 171 156 137 161
209 208 209 207 199 194 181 177 177 180 175 175 174 170 178 180 167 175 165 148 149 144
205 205 207 208 200 190 180 175 178 181 186 187 183 186 184 191 178 192 179 179 189 170
205 203 210 214 208 192 180 181 181 181 185 195 199 193 190 191 182 191 197 194 221 240
204 205 209 206 203 197 195 184 189 192 193 185 192 206 201 195 202 204 199 213 228 236
199 195 194 188 185 180 197 209 191 193 193 194 189 202 199 196 200 220 238 248 241 218
169 161 145 140 162 198 206 208 208 193 196 196 205 160 198 211 208 215 237 254 250 251
134 112 119 140 168 213 225 216 211 202 202 199 209 169 185 194 213 218 231 244 244 244
127 157 165 200 206 179 200 206 207 201 201 207 199 170 178 178 194 210 225 239 238 241
332 290 277 259 242 213 193 203 187 211 201 200 192 172 168 179 192 202 223 236 240 238
291 293 286 273 237 213 201 195 172 177 222 172 194 171 172 188 202 210 223 226 242 211
329 321 309 291 252 221 202 177 171 177 181 161 216 184 167 186 207 216 221 217 222 202